Land O' Lakes, WI

4:32 PM CDT on April 25, 2017 (GMT -0500)
Kings Land O'Lakes

Weather History for KLNL - August, 2014

Change the Weather History Date:

Wednesday, August 6, 2014

  Actual Average (KEGV) Record (KEGV)
Temperature  
Mean Temperature 62 °F -  
Max Temperature 79 °F 72 °F 89 °F (2001)
Min Temperature 45 °F 51 °F 39 °F (2004)
Degree Days  
Heating Degree Days 4    
Growing Degree Days 12 (Base 50)    
Moisture  
Dew Point 51 °F    
Average Humidity 69    
Maximum Humidity 100    
Minimum Humidity 36    
Precipitation  
Precipitation 0.00 in - - ()
Sea Level Pressure  
Sea Level Pressure 30.12 in    
Wind  
Wind Speed 2 mph (NNE)    
Max Wind Speed 10 mph    
Max Gust Speed -    
Visibility 9 miles    
Events      
Averages and records for this station are not official NWS values.
T = Trace of Precipitation, MM = Missing Value Source: NWS Daily Summary

Daily Weather History Graph

Daily Weather History Graph

Search for Another Location

Airport or City:

Trip Planner

Search our weather history database for the weather conditions in past years. The results will help you decide how hot, cold, wet, or windy it might be!

Date:

Astronomy

Aug. 06, 2014 Rise Set
Actual Time 5:44 AM CDT 8:19 PM CDT
Civil Twilight 5:10 AM CDT 8:53 PM CDT
Nautical Twilight 4:28 AM CDT 9:36 PM CDT
Astronomical Twilight 3:38 AM CDT 10:25 PM CDT
Moon 4:39 PM CDT (8/6) 1:18 AM CDT (8/6)
Length of Visible Light 15h 42m
Length of Day
14h 34m
Waxing Gibbous, 78% of the Moon is Illuminated
Aug 6
Waxing Gibbous
Aug 10
Full
Aug 17
Last Quarter
Aug 25
New
Sep 2
First Quarter

Hourly Weather History & Observations

Time (CDT) Temp. Dew Point Humidity Pressure Visibility Wind Dir Wind Speed Gust Speed Precip Events Conditions
12:15 AM 48.6 °F 48.4 °F 99% 30.13 in 2.5 mi Calm Calm - N/A   Clear
12:35 AM 48.2 °F 48.0 °F 99% 30.13 in 7.0 mi Calm Calm - N/A   Clear
12:55 AM 47.1 °F 46.9 °F 99% 30.13 in 1.2 mi Calm Calm - N/A   Mist
1:15 AM 46.6 °F 46.6 °F 100% 30.13 in 5.0 mi Calm Calm - N/A   Clear
1:35 AM 46.2 °F 46.0 °F 99% 30.12 in 5.0 mi Calm Calm - N/A   Clear
1:55 AM 45.5 °F 45.5 °F 100% 30.11 in 5.0 mi Calm Calm - N/A   Clear
2:15 AM 45.0 °F 45.0 °F 100% 30.11 in 7.0 mi Calm Calm - N/A   Clear
2:35 AM 45.5 °F 45.5 °F 100% 30.11 in 7.0 mi Calm Calm - N/A   Clear
2:55 AM 45.1 °F 45.1 °F 100% 30.11 in 10.0 mi Calm Calm - N/A   Clear
3:15 AM 46.8 °F 46.8 °F 100% 30.10 in 10.0 mi Calm Calm - N/A   Mostly Cloudy
3:35 AM 48.4 °F 48.4 °F 100% 30.10 in 10.0 mi Calm Calm - N/A   Overcast
3:55 AM 49.6 °F 49.6 °F 100% 30.10 in 10.0 mi Calm Calm - N/A   Overcast
4:15 AM 50.5 °F 50.4 °F 99% 30.10 in 10.0 mi Calm Calm - N/A   Overcast
4:35 AM 50.4 °F 50.0 °F 99% 30.10 in 10.0 mi Calm Calm - N/A   Overcast
4:55 AM 50.2 °F 49.8 °F 99% 30.10 in 10.0 mi Calm Calm - N/A   Mostly Cloudy
5:15 AM 49.3 °F 49.1 °F 99% 30.10 in 7.0 mi Calm Calm - N/A   Scattered Clouds
5:35 AM 48.2 °F 48.0 °F 99% 30.10 in 7.0 mi Calm Calm - N/A   Mostly Cloudy
5:55 AM 47.8 °F 47.7 °F 99% 30.10 in 7.0 mi Calm Calm - N/A   Scattered Clouds
6:15 AM 48.7 °F 48.7 °F 100% 30.11 in 7.0 mi Calm Calm - N/A   Scattered Clouds
6:35 AM 50.0 °F 50.0 °F 100% 30.12 in 10.0 mi Calm Calm - N/A   Scattered Clouds
6:55 AM 51.6 °F 51.4 °F 99% 30.12 in 10.0 mi Calm Calm - N/A   Clear
7:15 AM 54.9 °F 53.6 °F 96% 30.12 in 10.0 mi Calm Calm - N/A   Clear
7:35 AM 58.3 °F 54.9 °F 88% 30.13 in 10.0 mi Calm Calm - N/A   Clear
7:55 AM 61.3 °F 55.6 °F 81% 30.13 in 10.0 mi Calm Calm - N/A   Clear
8:15 AM 64.6 °F 52.9 °F 66% 30.13 in 10.0 mi Calm Calm - N/A   Clear
8:35 AM 66.2 °F 51.1 °F 58% 30.13 in 10.0 mi Calm Calm - N/A   Clear
8:55 AM 67.5 °F 48.2 °F 50% 30.13 in 10.0 mi Calm Calm - N/A   Clear
9:15 AM 68.2 °F 49.6 °F 51% 30.14 in 10.0 mi Calm Calm - N/A   Clear
9:35 AM 69.4 °F 49.3 °F 49% 30.13 in 10.0 mi SE 3.5 mph - N/A   Clear
9:55 AM 70.0 °F 49.5 °F 48% 30.14 in 10.0 mi NE 3.5 mph - N/A   Clear
10:15 AM 71.4 °F 49.1 °F 45% 30.14 in 10.0 mi ENE 3.5 mph - N/A   Clear
10:35 AM 71.4 °F 49.8 °F 46% 30.14 in 10.0 mi East 4.6 mph - N/A   Clear
11:15 AM 73.0 °F 49.3 °F 43% 30.15 in 10.0 mi East 5.8 mph - N/A   Clear
11:35 AM 73.4 °F 48.4 °F 41% 30.14 in 10.0 mi Calm Calm - N/A   Clear
11:55 AM 75.0 °F 49.6 °F 41% 30.14 in 10.0 mi NE 3.5 mph - N/A   Clear
12:15 PM 75.0 °F 48.6 °F 39% 30.13 in 10.0 mi Calm Calm - N/A   Clear
12:35 PM 76.5 °F 50.0 °F 39% 30.12 in 10.0 mi ESE 9.2 mph - N/A   Clear
12:55 PM 74.8 °F 50.4 °F 42% 30.13 in 10.0 mi North 5.8 mph - N/A   Scattered Clouds
1:15 PM 76.3 °F 49.8 °F 39% 30.13 in 10.0 mi NE 5.8 mph - N/A   Mostly Cloudy
1:35 PM 77.5 °F 49.6 °F 37% 30.12 in 10.0 mi North 6.9 mph - N/A   Scattered Clouds
1:55 PM 78.3 °F 49.3 °F 36% 30.12 in 10.0 mi NNE 5.8 mph - N/A   Clear
2:15 PM 75.9 °F 50.4 °F 41% 30.12 in 10.0 mi NE 5.8 mph - N/A   Scattered Clouds
2:35 PM 75.2 °F 50.4 °F 42% 30.12 in 10.0 mi North 4.6 mph - N/A   Mostly Cloudy
2:55 PM 77.4 °F 50.5 °F 39% 30.12 in 10.0 mi NNW 5.8 mph - N/A   Scattered Clouds
3:15 PM 78.1 °F 49.6 °F 37% 30.12 in 10.0 mi NNE 6.9 mph - N/A   Mostly Cloudy
3:35 PM 78.4 °F 49.8 °F 37% 30.12 in 10.0 mi North 4.6 mph - N/A   Scattered Clouds
3:55 PM 78.4 °F 50.0 °F 37% 30.12 in 10.0 mi NW 5.8 mph - N/A   Clear
4:15 PM 78.6 °F 49.8 °F 36% 30.11 in 10.0 mi North 9.2 mph - N/A   Scattered Clouds
4:35 PM 77.0 °F 49.8 °F 38% 30.11 in 10.0 mi Calm Calm - N/A   Clear
4:55 PM 78.6 °F 50.4 °F 37% 30.11 in 10.0 mi NE 4.6 mph - N/A   Scattered Clouds
5:15 PM 78.1 °F 50.9 °F 39% 30.11 in 10.0 mi North 6.9 mph - N/A   Scattered Clouds
5:35 PM 78.4 °F 50.4 °F 37% 30.11 in 10.0 mi NNE 4.6 mph - N/A   Mostly Cloudy
5:55 PM 77.2 °F 53.6 °F 44% 30.11 in 10.0 mi North 6.9 mph - N/A   Scattered Clouds
6:15 PM 76.6 °F 55.8 °F 48% 30.11 in 10.0 mi North 10.4 mph - N/A   Scattered Clouds
6:35 PM 75.2 °F 56.1 °F 51% 30.11 in 10.0 mi North 9.2 mph - N/A   Mostly Cloudy
6:55 PM 73.6 °F 55.8 °F 54% 30.12 in 10.0 mi NNE 10.4 mph - N/A   Scattered Clouds
7:15 PM 72.0 °F 56.3 °F 58% 30.12 in 10.0 mi North 9.2 mph - N/A   Clear
7:35 PM 70.7 °F 56.7 °F 61% 30.12 in 10.0 mi North 8.1 mph - N/A   Clear
7:55 PM 69.4 °F 57.2 °F 65% 30.13 in 10.0 mi NNE 6.9 mph - N/A   Clear
8:15 PM 68.2 °F 57.2 °F 68% 30.13 in 10.0 mi NNE 5.8 mph - N/A   Clear
8:35 PM 66.7 °F 57.4 °F 72% 30.13 in 10.0 mi North 4.6 mph - N/A   Clear
8:55 PM 65.8 °F 57.4 °F 74% 30.14 in 7.0 mi NNE 4.6 mph - N/A   Clear
9:15 PM 64.9 °F 57.2 °F 76% 30.14 in 10.0 mi NNE 3.5 mph - N/A   Clear
9:35 PM 64.2 °F 56.8 °F 77% 30.15 in 10.0 mi Calm Calm - N/A   Clear
9:55 PM 63.1 °F 56.8 °F 80% 30.15 in 10.0 mi Calm Calm - N/A   Clear
10:15 PM 62.6 °F 56.7 °F 81% 30.15 in 10.0 mi Calm Calm - N/A   Clear
10:35 PM 57.7 °F 55.6 °F 92% 30.15 in 10.0 mi Calm Calm - N/A   Clear
10:55 PM 56.5 °F 55.2 °F 96% 30.15 in 10.0 mi Calm Calm - N/A   Clear
11:15 PM 56.3 °F 54.7 °F 94% 30.16 in 10.0 mi Calm Calm - N/A   Scattered Clouds
11:35 PM 56.8 °F 54.9 °F 93% 30.16 in 10.0 mi Calm Calm - N/A   Scattered Clouds
11:55 PM 54.9 °F 54.0 °F 97% 30.16 in 10.0 mi Calm Calm - N/A   Scattered Clouds